Home > Weather > Bristol > Past weeks

Flag for USA Past Weather in Bristol, Tennessee, USA — Yesterday and Last 2 Weeks

Now
74 °F

Sunny.


Feels Like: 74 °F
Forecast: 69 / 92 °F
Wind: 7 mph from Southeast

Location: Abingdon-Southwest Abingdon

Current Time: Aug 27, 2016 at 9:40:16 AM

Latest Report: Aug 27, 2016 at 8:55 AM


Visibility: 10 mi

Pressure: 30.22 "Hg (28.50 "Hg at 510m altitude)

Humidity: 83%

Dew Point: 69 °F

Location of BristolLocation

Past Weather in Bristol — Graph

°F

Bristol Temperature Yesterday

Maximum temperature yesterday: 90 °F (at 4:15 PM)
Minimum temperature yesterday: 68 °F (at 7:15 AM)
Average temperature yesterday: 79 °F

High & Low Weather Summary for the Past Weeks

 TemperatureHumidityPressure
High92 °F (Aug 12, 3:55 PM)100% (Aug 14, 12:15 AM)30.35 "Hg (Aug 14, 12:15 AM)
Low59 °F (Aug 22, 6:35 AM)37% (Aug 23, 4:15 PM)29.92 "Hg (Aug 20, 5:35 PM)
Average75 °F81%30.18 "Hg
* Reported Aug 12 8:15 AM — Aug 27 8:15 AM, Bristol, Weather by CustomWeather, © 2016

Note: Actual official high and low records may vary slightly from our data, if they occured in-between our weather recording intervals... More about our weather records

Advertising

Bristol Weather History for the Previous 24 Hours

Scroll right to see more
 ConditionsComfort  
Time TempWeatherWind HumidityBarometerVisibility
8:15 AM
Sat, Aug 27
72 °FSunny.8 mph91%30.22 "Hg10 mi
7:55 AM71 °FSunny.9 mph91%30.22 "Hg10 mi
7:35 AM70 °FClear.5 mph95%30.21 "Hg7 mi
7:15 AM69 °FFog.5 mph98%30.20 "Hg5 mi
6:55 AM69 °FClear.6 mph99%30.20 "Hg7 mi
6:15 AM70 °FClear.7 mph95%30.19 "Hg7 mi
5:55 AM70 °FClear.8 mph95%30.19 "Hg7 mi
5:35 AM69 °FClear.7 mph96%30.19 "Hg7 mi
5:15 AM69 °FClear.6 mph97%30.19 "Hg7 mi
4:55 AM71 °FClear.No wind98%30.19 "Hg10 mi
4:15 AM69 °FClear.No wind95%30.19 "Hg7 mi
3:55 AM71 °FClear.No wind95%30.19 "Hg10 mi
3:35 AM70 °FClear.No wind95%30.19 "Hg10 mi
3:15 AM71 °FClear.No wind95%30.19 "Hg10 mi
2:55 AM72 °FClear.No wind93%30.18 "Hg10 mi
2:35 AM73 °FClear.3 mph89%30.19 "Hg10 mi
2:15 AM72 °FClear.No wind90%30.19 "Hg10 mi
1:55 AM72 °FClear.No wind91%30.20 "Hg10 mi
1:35 AM73 °FClear.No wind88%30.21 "Hg10 mi
1:15 AM74 °FClear.No wind86%30.21 "Hg10 mi
12:55 AM73 °FClear.3 mph88%30.21 "Hg10 mi
12:15 AM75 °FClear.No wind81%30.21 "Hg10 mi
11:55 PM
Fri, Aug 26
75 °FClear.No wind81%30.21 "Hg10 mi
11:35 PM75 °FClear.No wind81%30.22 "Hg10 mi
11:15 PM75 °FClear.No wind82%30.22 "Hg10 mi
10:55 PM76 °FClear.No wind81%30.22 "Hg10 mi
10:15 PM75 °FClear.No wind83%30.21 "Hg10 mi
9:55 PM77 °FClear.No wind76%30.21 "Hg10 mi
9:15 PM78 °FClear.No wind73%30.19 "Hg10 mi
8:55 PM80 °FSunny.No wind68%30.18 "Hg10 mi
8:35 PM82 °FSunny.No wind61%30.17 "Hg10 mi
8:15 PM83 °FSunny.No wind58%30.16 "Hg10 mi
7:55 PM84 °FSunny.3 mph58%30.16 "Hg10 mi
7:15 PM87 °FSunny.3 mph50%30.16 "Hg10 mi
6:55 PM87 °FScattered clouds.6 mph51%30.15 "Hg10 mi
6:35 PM88 °FScattered clouds.7 mph50%30.16 "Hg10 mi
6:15 PM89 °FScattered clouds.5 mph48%30.16 "Hg10 mi
5:55 PM89 °FSunny.6 mph49%30.15 "Hg10 mi
5:35 PM90 °FScattered clouds.3 mph48%30.15 "Hg10 mi
5:15 PM89 °FScattered clouds.No wind48%30.16 "Hg10 mi
4:55 PM88 °FScattered clouds.6 mph49%30.16 "Hg10 mi
4:15 PM90 °FSunny.No wind43%30.17 "Hg10 mi
3:55 PM89 °FSunny.No wind44%30.17 "Hg10 mi
3:35 PM89 °FSunny.5 mph45%30.18 "Hg10 mi
3:15 PM89 °FScattered clouds.5 mph43%30.19 "Hg10 mi
2:55 PM88 °FScattered clouds.3 mph48%30.20 "Hg10 mi
2:15 PM87 °FScattered clouds.No wind52%30.21 "Hg10 mi
1:55 PM87 °FPartly sunny.No wind53%30.22 "Hg10 mi
1:35 PM87 °FScattered clouds.No wind49%30.22 "Hg10 mi
1:15 PM86 °FScattered clouds.No wind54%30.23 "Hg10 mi
12:55 PM86 °FScattered clouds.5 mph57%30.23 "Hg10 mi
12:15 PM86 °FPartly sunny.No wind56%30.24 "Hg10 mi
11:55 AM86 °FScattered clouds.5 mph58%30.24 "Hg10 mi
11:35 AM82 °FSunny.5 mph63%30.25 "Hg10 mi
11:15 AM83 °FScattered clouds.3 mph66%30.25 "Hg10 mi
10:55 AM81 °FMostly cloudy.No wind73%30.25 "Hg10 mi
10:15 AM81 °FScattered clouds.No wind75%30.24 "Hg10 mi
9:55 AM81 °FSunny.No wind77%30.24 "Hg10 mi
9:15 AM77 °FSunny.No wind86%30.23 "Hg10 mi
Weather by CustomWeather, © 2016

See weather overviewHow to use our weather pages